Wetterdaten: Dienstag, 13.08.2013
Datum Zeit Temperatur Luftfeuchte Luftdruck Regen Wind Richtung Richtung Taupunkt Windchill Windben
13.08.2013 00:00 13,9 C 83 % 1018,6 hPa 0,0 l/m 0,3 km/h (0 Bft) SO 135 11,1 C 14,1 C 0,0 km/h (0 Bft)
13.08.2013 00:05 13,9 C 83 % 1018,6 hPa 0,0 l/m 0,2 km/h (0 Bft) NO 45 11,1 C 13,8 C 0,0 km/h (0 Bft)
13.08.2013 00:10 13,7 C 83 % 1018,6 hPa 0,0 l/m 0,2 km/h (0 Bft) W 270 10,9 C 13,6 C 0,0 km/h (0 Bft)
13.08.2013 00:15 13,5 C 83 % 1018,6 hPa 0,0 l/m 0,2 km/h (0 Bft) O-SO 112 10,7 C 13,6 C 2,1 km/h (1 Bft)
13.08.2013 00:20 13,4 C 84 % 1018,7 hPa 0,0 l/m 0,0 km/h (0 Bft) O-SO 112 10,8 C 13,4 C 0,0 km/h (0 Bft)
13.08.2013 00:25 13,4 C 84 % 1018,7 hPa 0,0 l/m 0,0 km/h (0 Bft) S 180 10,8 C 13,2 C 3,2 km/h (1 Bft)
13.08.2013 00:30 13,4 C 85 % 1018,7 hPa 0,0 l/m 0,8 km/h (0 Bft) O-NO 67 10,9 C 13,3 C 2,3 km/h (1 Bft)
13.08.2013 00:35 13,4 C 85 % 1018,7 hPa 0,0 l/m 1,0 km/h (0 Bft) SO 135 10,9 C 13,3 C 4,2 km/h (1 Bft)
13.08.2013 00:40 13,5 C 85 % 1018,8 hPa 0,0 l/m 0,5 km/h (0 Bft) O 90 11,0 C 13,2 C 0,0 km/h (0 Bft)
13.08.2013 00:45 13,3 C 85 % 1018,8 hPa 0,0 l/m 0,3 km/h (0 Bft) N-NO 22 10,8 C 13,1 C 2,6 km/h (1 Bft)
13.08.2013 00:50 13,1 C 85 % 1018,8 hPa 0,0 l/m 0,5 km/h (0 Bft) N-NW 337 10,6 C 12,9 C 0,0 km/h (0 Bft)
13.08.2013 00:55 12,9 C 86 % 1018,8 hPa 0,0 l/m 1,0 km/h (0 Bft) O-NO 67 10,6 C 12,9 C 4,3 km/h (1 Bft)
13.08.2013 01:00 13,0 C 86 % 1018,8 hPa 0,0 l/m 0,8 km/h (0 Bft) S 180 10,7 C 12,8 C 0,0 km/h (0 Bft)
13.08.2013 01:05 13,1 C 86 % 1018,8 hPa 0,0 l/m 0,6 km/h (0 Bft) S-SO 157 10,8 C 12,7 C 0,0 km/h (0 Bft)
13.08.2013 01:10 13,0 C 86 % 1018,8 hPa 0,0 l/m 0,2 km/h (0 Bft) SO 135 10,7 C 12,6 C 0,0 km/h (0 Bft)
13.08.2013 01:15 12,7 C 87 % 1018,8 hPa 0,0 l/m 0,0 km/h (0 Bft) SO 135 10,6 C 12,5 C 0,0 km/h (0 Bft)
13.08.2013 01:20 12,6 C 87 % 1018,8 hPa 0,0 l/m 0,0 km/h (0 Bft) S 180 10,5 C 12,4 C 0,0 km/h (0 Bft)
13.08.2013 01:25 13,0 C 87 % 1018,8 hPa 0,0 l/m 0,0 km/h (0 Bft) O-NO 67 10,9 C 12,5 C 0,0 km/h (0 Bft)
13.08.2013 01:30 13,0 C 87 % 1018,8 hPa 0,0 l/m 0,0 km/h (0 Bft) O-NO 67 10,9 C 12,6 C 0,0 km/h (0 Bft)
13.08.2013 01:35 13,3 C 87 % 1018,8 hPa 0,0 l/m 0,0 km/h (0 Bft) O-NO 67 11,2 C 12,6 C 0,0 km/h (0 Bft)
13.08.2013 01:40 13,3 C 87 % 1018,6 hPa 0,0 l/m 0,0 km/h (0 Bft) N-NW 337 11,2 C 12,6 C 0,0 km/h (0 Bft)
13.08.2013 01:45 12,9 C 87 % 1018,6 hPa 0,0 l/m 0,0 km/h (0 Bft) S 180 10,8 C 12,6 C 0,0 km/h (0 Bft)
13.08.2013 01:50 12,8 C 87 % 1018,6 hPa 0,0 l/m 0,0 km/h (0 Bft) W-NW 292 10,7 C 12,4 C 0,0 km/h (0 Bft)
13.08.2013 01:55 12,5 C 87 % 1018,6 hPa 0,0 l/m 0,5 km/h (0 Bft) W-NW 292 10,4 C 12,4 C 0,0 km/h (0 Bft)
13.08.2013 02:00 12,5 C 87 % 1018,8 hPa 0,0 l/m 1,1 km/h (1 Bft) S-SO 157 10,4 C 12,3 C 2,4 km/h (1 Bft)
13.08.2013 02:05 13,4 C 88 % 1018,8 hPa 0,0 l/m 2,1 km/h (1 Bft) O-NO 67 11,5 C 12,6 C 5,0 km/h (1 Bft)
13.08.2013 02:10 13,7 C 88 % 1018,8 hPa 0,0 l/m 2,4 km/h (1 Bft) NO 45 11,7 C 13,0 C 2,7 km/h (1 Bft)
13.08.2013 02:15 14,0 C 87 % 1018,8 hPa 0,0 l/m 2,1 km/h (1 Bft) O-NO 67 11,9 C 13,4 C 5,3 km/h (1 Bft)
13.08.2013 02:20 14,0 C 87 % 1018,8 hPa 0,0 l/m 1,9 km/h (1 Bft) NO 45 11,9 C 13,6 C 0,0 km/h (0 Bft)
13.08.2013 02:25 13,9 C 86 % 1018,8 hPa 0,0 l/m 0,8 km/h (0 Bft) S 180 11,6 C 13,7 C 2,1 km/h (1 Bft)
13.08.2013 02:30 13,7 C 86 % 1018,8 hPa 0,0 l/m 0,2 km/h (0 Bft) SO 135 11,4 C 13,7 C 0,0 km/h (0 Bft)
13.08.2013 02:35 13,7 C 86 % 1018,8 hPa 0,0 l/m 0,3 km/h (0 Bft) N-NO 22 11,4 C 13,7 C 0,0 km/h (0 Bft)
13.08.2013 02:40 13,6 C 86 % 1019,1 hPa 0,0 l/m 0,2 km/h (0 Bft) N-NO 22 11,3 C 13,7 C 0,0 km/h (0 Bft)
13.08.2013 02:45 13,6 C 86 % 1019,1 hPa 0,0 l/m 0,0 km/h (0 Bft) N-NO 22 11,3 C 13,6 C 1,8 km/h (1 Bft)
13.08.2013 02:50 13,9 C 86 % 1019,1 hPa 0,0 l/m 0,5 km/h (0 Bft) O-NO 67 11,6 C 13,6 C 3,1 km/h (1 Bft)
13.08.2013 02:55 14,3 C 86 % 1019,1 hPa 0,0 l/m 0,5 km/h (0 Bft) O-NO 67 12,0 C 13,9 C 0,0 km/h (0 Bft)
13.08.2013 03:00 14,3 C 86 % 1019,0 hPa 0,0 l/m 0,3 km/h (0 Bft) NO 45 12,0 C 14,1 C 0,0 km/h (0 Bft)
13.08.2013 03:05 14,7 C 86 % 1019,0 hPa 0,0 l/m 0,3 km/h (0 Bft) SO 135 12,4 C 14,3 C 0,0 km/h (0 Bft)
13.08.2013 03:10 14,7 C 86 % 1019,0 hPa 0,0 l/m 0,5 km/h (0 Bft) N-NW 337 12,4 C 14,5 C 0,0 km/h (0 Bft)
13.08.2013 03:15 14,5 C 86 % 1019,0 hPa 0,0 l/m 1,0 km/h (0 Bft) S-SO 157 12,2 C 14,5 C 2,7 km/h (1 Bft)
13.08.2013 03:20 14,4 C 86 % 1019,1 hPa 0,0 l/m 1,3 km/h (1 Bft) O-SO 112 12,1 C 14,4 C 1,8 km/h (1 Bft)
13.08.2013 03:25 14,3 C 86 % 1019,1 hPa 0,0 l/m 1,1 km/h (1 Bft) NO 45 12,0 C 14,2 C 0,0 km/h (0 Bft)
13.08.2013 03:30 14,2 C 86 % 1019,1 hPa 0,0 l/m 0,3 km/h (0 Bft) O-NO 67 11,9 C 14,1 C 0,0 km/h (0 Bft)
13.08.2013 03:35 14,3 C 87 % 1019,1 hPa 0,0 l/m 1,0 km/h (0 Bft) N-NW 337 12,2 C 14,0 C 2,1 km/h (1 Bft)
13.08.2013 03:40 14,1 C 87 % 1019,2 hPa 0,0 l/m 2,1 km/h (1 Bft) W-SW 247 12,0 C 13,9 C 2,9 km/h (1 Bft)
13.08.2013 03:45 13,9 C 89 % 1019,2 hPa 0,0 l/m 1,8 km/h (1 Bft) O 90 12,1 C 13,8 C 2,7 km/h (1 Bft)
13.08.2013 03:50 13,8 C 90 % 1019,2 hPa 0,0 l/m 2,3 km/h (1 Bft) O 90 12,2 C 13,6 C 4,3 km/h (1 Bft)
13.08.2013 03:55 13,7 C 90 % 1019,2 hPa 0,0 l/m 2,6 km/h (1 Bft) NO 45 12,1 C 13,6 C 0,0 km/h (0 Bft)
13.08.2013 04:00 13,6 C 91 % 1019,2 hPa 0,0 l/m 2,1 km/h (1 Bft) NO 45 12,2 C 13,4 C 0,0 km/h (0 Bft)
13.08.2013 04:05 13,2 C 91 % 1019,2 hPa 0,0 l/m 1,1 km/h (1 Bft) O-SO 112 11,8 C 13,1 C 0,0 km/h (0 Bft)
13.08.2013 04:10 13,1 C 91 % 1019,2 hPa 0,0 l/m 0,6 km/h (0 Bft) N 360 11,7 C 13,1 C 0,0 km/h (0 Bft)
13.08.2013 04:15 12,9 C 93 % 1019,2 hPa 0,0 l/m 1,0 km/h (0 Bft) O-NO 67 11,8 C 12,8 C 1,8 km/h (1 Bft)
13.08.2013 04:20 13,0 C 92 % 1019,4 hPa 0,0 l/m 1,9 km/h (1 Bft) O 90 11,7 C 12,7 C 5,3 km/h (1 Bft)
13.08.2013 04:25 12,8 C 93 % 1019,4 hPa 0,0 l/m 2,6 km/h (1 Bft) O-NO 67 11,7 C 12,7 C 4,3 km/h (1 Bft)
13.08.2013 04:30 12,8 C 93 % 1019,4 hPa 0,0 l/m 3,4 km/h (1 Bft) O-NO 67 11,7 C 12,6 C 4,8 km/h (1 Bft)
13.08.2013 04:35 12,7 C 93 % 1019,4 hPa 0,0 l/m 3,7 km/h (1 Bft) O 90 11,6 C 12,5 C 5,8 km/h (2 Bft)
13.08.2013 04:40 12,5 C 93 % 1019,2 hPa 0,0 l/m 2,3 km/h (1 Bft) N 360 11,4 C 12,4 C 0,0 km/h (0 Bft)
13.08.2013 04:45 12,4 C 93 % 1019,2 hPa 0,0 l/m 1,0 km/h (0 Bft) O-SO 112 11,3 C 12,2 C 3,5 km/h (1 Bft)
13.08.2013 04:50 12,7 C 93 % 1019,2 hPa 0,0 l/m 1,1 km/h (1 Bft) N-NO 22 11,6 C 12,3 C 0,0 km/h (0 Bft)
13.08.2013 04:55 12,3 C 93 % 1019,2 hPa 0,0 l/m 0,8 km/h (0 Bft) N-NO 22 11,2 C 12,2 C 0,0 km/h (0 Bft)
13.08.2013 05:00 12,2 C 94 % 1019,2 hPa 0,0 l/m 0,3 km/h (0 Bft) O-NO 67 11,3 C 12,1 C 1,6 km/h (1 Bft)
13.08.2013 05:05 12,4 C 94 % 1019,2 hPa 0,0 l/m 1,4 km/h (1 Bft) O 90 11,5 C 12,1 C 4,8 km/h (1 Bft)
13.08.2013 05:10 12,5 C 94 % 1019,2 hPa 0,0 l/m 2,1 km/h (1 Bft) O-SO 112 11,6 C 12,2 C 1,8 km/h (1 Bft)
13.08.2013 05:15 12,3 C 94 % 1019,2 hPa 0,0 l/m 1,1 km/h (1 Bft) NO 45 11,4 C 12,2 C 0,0 km/h (0 Bft)
13.08.2013 05:20 12,3 C 94 % 1019,4 hPa 0,0 l/m 0,0 km/h (0 Bft) N-NO 22 11,4 C 12,2 C 0,0 km/h (0 Bft)
13.08.2013 05:25 12,4 C 94 % 1019,4 hPa 0,0 l/m 0,0 km/h (0 Bft) N-NO 22 11,5 C 12,2 C 0,0 km/h (0 Bft)
13.08.2013 05:30 12,4 C 94 % 1019,4 hPa 0,0 l/m 0,0 km/h (0 Bft) N-NO 22 11,5 C 12,2 C 0,0 km/h (0 Bft)
13.08.2013 05:35 12,4 C 94 % 1019,4 hPa 0,0 l/m 0,0 km/h (0 Bft) SO 135 11,5 C 12,2 C 0,0 km/h (0 Bft)
13.08.2013 05:40 12,5 C 94 % 1019,6 hPa 0,0 l/m 0,0 km/h (0 Bft) SO 135 11,6 C 12,4 C 0,0 km/h (0 Bft)
13.08.2013 05:45 12,6 C 94 % 1019,6 hPa 0,0 l/m 0,2 km/h (0 Bft) W-SW 247 11,7 C 12,4 C 0,0 km/h (0 Bft)
13.08.2013 05:50 12,6 C 94 % 1019,6 hPa 0,0 l/m 1,0 km/h (0 Bft) O-NO 67 11,7 C 12,4 C 3,5 km/h (1 Bft)
13.08.2013 05:55 12,9 C 94 % 1019,6 hPa 0,0 l/m 2,4 km/h (1 Bft) O 90 12,0 C 12,6 C 3,7 km/h (1 Bft)
13.08.2013 06:00 13,1 C 94 % 1019,5 hPa 0,0 l/m 3,1 km/h (1 Bft) O 90 12,2 C 12,7 C 3,1 km/h (1 Bft)
13.08.2013 06:05 13,2 C 94 % 1019,5 hPa 0,0 l/m 1,9 km/h (1 Bft) O-SO 112 12,3 C 12,9 C 0,0 km/h (0 Bft)
13.08.2013 06:10 13,2 C 94 % 1019,5 hPa 0,0 l/m 0,8 km/h (0 Bft) N-NO 22 12,3 C 12,9 C 0,0 km/h (0 Bft)
13.08.2013 06:15 13,2 C 94 % 1019,5 hPa 0,0 l/m 0,0 km/h (0 Bft) O-SO 112 12,3 C 13,0 C 0,0 km/h (0 Bft)
13.08.2013 06:20 13,2 C 94 % 1020,1 hPa 0,0 l/m 0,0 km/h (0 Bft) O-SO 112 12,3 C 13,1 C 0,0 km/h (0 Bft)
13.08.2013 06:25 13,2 C 94 % 1020,1 hPa 0,0 l/m 0,2 km/h (0 Bft) N-NO 22 12,3 C 13,0 C 0,0 km/h (0 Bft)
13.08.2013 06:30 13,3 C 94 % 1020,1 hPa 0,0 l/m 0,2 km/h (0 Bft) O-SO 112 12,4 C 13,1 C 2,3 km/h (1 Bft)
13.08.2013 06:35 13,5 C 94 % 1020,1 hPa 0,0 l/m 0,2 km/h (0 Bft) S-SO 157 12,6 C 13,3 C 0,0 km/h (0 Bft)
13.08.2013 06:40 13,5 C 94 % 1019,9 hPa 0,0 l/m 0,5 km/h (0 Bft) W-SW 247 12,6 C 13,3 C 0,0 km/h (0 Bft)
13.08.2013 06:45 13,5 C 94 % 1019,9 hPa 0,0 l/m 1,0 km/h (0 Bft) S 180 12,6 C 13,3 C 2,7 km/h (1 Bft)
13.08.2013 06:50 13,5 C 94 % 1019,9 hPa 0,7 l/m 1,8 km/h (1 Bft) N-NO 22 12,6 C 13,4 C 4,2 km/h (1 Bft)
13.08.2013 06:55 13,5 C 94 % 1019,9 hPa 0,0 l/m 1,8 km/h (1 Bft) O-NO 67 12,6 C 13,4 C 2,3 km/h (1 Bft)
13.08.2013 07:00 13,5 C 94 % 1020,0 hPa 0,0 l/m 1,6 km/h (1 Bft) S-SO 157 12,6 C 13,5 C 2,1 km/h (1 Bft)
13.08.2013 07:05 13,5 C 94 % 1020,0 hPa 2,1 l/m 3,2 km/h (1 Bft) S-SO 157 12,6 C 13,5 C 8,0 km/h (2 Bft)
13.08.2013 07:10 13,4 C 94 % 1020,0 hPa 0,0 l/m 3,1 km/h (1 Bft) O 90 12,5 C 13,5 C 3,7 km/h (1 Bft)
13.08.2013 07:15 13,4 C 94 % 1020,0 hPa 0,0 l/m 2,9 km/h (1 Bft) NO 45 12,5 C 13,4 C 3,5 km/h (1 Bft)
13.08.2013 07:20 13,4 C 94 % 1020,4 hPa 0,0 l/m 2,6 km/h (1 Bft) SO 135 12,5 C 13,4 C 2,3 km/h (1 Bft)
13.08.2013 07:25 13,5 C 94 % 1020,4 hPa 0,0 l/m 1,1 km/h (1 Bft) SO 135 12,6 C 13,5 C 0,0 km/h (0 Bft)
13.08.2013 07:30 13,6 C 94 % 1020,4 hPa 0,0 l/m 0,5 km/h (0 Bft) O-NO 67 12,7 C 13,6 C 0,0 km/h (0 Bft)
13.08.2013 07:35 13,6 C 94 % 1020,4 hPa 0,0 l/m 1,4 km/h (1 Bft) S 180 12,7 C 13,7 C 2,9 km/h (1 Bft)
13.08.2013 07:40 13,5 C 94 % 1020,6 hPa 0,7 l/m 2,6 km/h (1 Bft) O 90 12,6 C 13,6 C 4,3 km/h (1 Bft)
13.08.2013 07:45 13,4 C 94 % 1020,6 hPa 0,0 l/m 2,1 km/h (1 Bft) S-SO 157 12,5 C 13,6 C 8,4 km/h (2 Bft)
13.08.2013 07:50 13,4 C 94 % 1020,6 hPa 0,7 l/m 1,4 km/h (1 Bft) S-SO 157 12,5 C 13,5 C 4,5 km/h (1 Bft)
13.08.2013 07:55 13,4 C 94 % 1020,6 hPa 0,0 l/m 1,4 km/h (1 Bft) S 180 12,5 C 13,4 C 3,2 km/h (1 Bft)
13.08.2013 08:00 13,5 C 94 % 1020,8 hPa 0,0 l/m 0,8 km/h (0 Bft) S 180 12,6 C 13,5 C 0,0 km/h (0 Bft)
13.08.2013 08:05 13,5 C 94 % 1020,8 hPa 0,0 l/m 0,3 km/h (0 Bft) S 180 12,6 C 13,5 C 0,0 km/h (0 Bft)
13.08.2013 08:10 13,5 C 94 % 1020,8 hPa 0,0 l/m 0,3 km/h (0 Bft) S-SW 202 12,6 C 13,4 C 2,7 km/h (1 Bft)
13.08.2013 08:15 13,5 C 94 % 1020,8 hPa 0,7 l/m 1,4 km/h (1 Bft) S-SO 157 12,6 C 13,5 C 4,0 km/h (1 Bft)
13.08.2013 08:20 13,5 C 94 % 1020,9 hPa 0,0 l/m 1,9 km/h (1 Bft) O-NO 67 12,6 C 13,5 C 2,7 km/h (1 Bft)
13.08.2013 08:25 13,5 C 94 % 1020,9 hPa 0,0 l/m 2,1 km/h (1 Bft) SO 135 12,6 C 13,5 C 2,7 km/h (1 Bft)
13.08.2013 08:30 13,4 C 94 % 1020,9 hPa 0,0 l/m 2,6 km/h (1 Bft) O 90 12,5 C 13,5 C 2,1 km/h (1 Bft)
13.08.2013 08:35 13,4 C 94 % 1020,9 hPa 0,7 l/m 2,9 km/h (1 Bft) S-SO 157 12,5 C 13,5 C 9,5 km/h (2 Bft)
13.08.2013 08:40 13,3 C 94 % 1021,2 hPa 0,7 l/m 2,7 km/h (1 Bft) S 180 12,4 C 13,4 C 4,5 km/h (1 Bft)
13.08.2013 08:45 13,3 C 94 % 1021,2 hPa 0,0 l/m 2,1 km/h (1 Bft) O-NO 67 12,4 C 13,4 C 0,0 km/h (0 Bft)
13.08.2013 08:50 13,4 C 94 % 1021,2 hPa 0,0 l/m 1,3 km/h (1 Bft) S-SO 157 12,5 C 13,4 C 0,0 km/h (0 Bft)
13.08.2013 08:55 13,5 C 94 % 1021,2 hPa 0,0 l/m 1,6 km/h (1 Bft) S 180 12,6 C 13,5 C 3,7 km/h (1 Bft)
13.08.2013 09:00 13,5 C 94 % 1021,4 hPa 0,0 l/m 3,2 km/h (1 Bft) S-SO 157 12,6 C 13,4 C 7,4 km/h (2 Bft)
13.08.2013 09:05 13,4 C 94 % 1021,4 hPa 0,0 l/m 3,2 km/h (1 Bft) O 90 12,5 C 13,5 C 3,1 km/h (1 Bft)
13.08.2013 09:10 13,5 C 95 % 1021,4 hPa 0,0 l/m 2,1 km/h (1 Bft) SO 135 12,7 C 13,6 C 3,7 km/h (1 Bft)
13.08.2013 09:15 13,7 C 95 % 1021,4 hPa 0,0 l/m 1,3 km/h (1 Bft) S 180 12,9 C 13,8 C 3,9 km/h (1 Bft)
13.08.2013 09:20 14,0 C 94 % 1021,5 hPa 0,0 l/m 2,3 km/h (1 Bft) S 180 13,0 C 13,8 C 5,5 km/h (1 Bft)
13.08.2013 09:25 13,7 C 94 % 1021,5 hPa 0,0 l/m 2,7 km/h (1 Bft) S 180 12,8 C 13,8 C 1,9 km/h (1 Bft)
13.08.2013 09:30 13,5 C 94 % 1021,5 hPa 0,0 l/m 2,4 km/h (1 Bft) SO 135 12,6 C 13,7 C 3,9 km/h (1 Bft)
13.08.2013 09:35 13,4 C 94 % 1021,5 hPa 0,0 l/m 1,6 km/h (1 Bft) S 180 12,5 C 13,7 C 4,0 km/h (1 Bft)
13.08.2013 09:40 13,5 C 94 % 1021,9 hPa 0,0 l/m 1,6 km/h (1 Bft) S 180 12,6 C 13,7 C 6,4 km/h (2 Bft)
13.08.2013 09:45 13,3 C 94 % 1021,9 hPa 0,0 l/m 2,7 km/h (1 Bft) O-SO 112 12,4 C 13,6 C 2,9 km/h (1 Bft)
13.08.2013 09:50 13,4 C 94 % 1021,9 hPa 0,0 l/m 2,9 km/h (1 Bft) SO 135 12,5 C 13,6 C 3,2 km/h (1 Bft)
13.08.2013 09:55 13,3 C 94 % 1021,9 hPa 0,0 l/m 1,4 km/h (1 Bft) S 180 12,4 C 13,6 C 0,0 km/h (0 Bft)
13.08.2013 10:00 13,2 C 94 % 1021,7 hPa 0,0 l/m 0,8 km/h (0 Bft) N-NO 22 12,3 C 13,5 C 0,0 km/h (0 Bft)
13.08.2013 10:05 13,1 C 94 % 1021,7 hPa 0,0 l/m 0,6 km/h (0 Bft) NO 45 12,2 C 13,4 C 3,2 km/h (1 Bft)
13.08.2013 10:10 13,2 C 94 % 1021,7 hPa 0,0 l/m 1,1 km/h (1 Bft) SO 135 12,3 C 13,3 C 3,4 km/h (1 Bft)
13.08.2013 10:15 13,3 C 94 % 1021,7 hPa 0,0 l/m 1,0 km/h (0 Bft) SW 225 12,4 C 13,3 C 0,0 km/h (0 Bft)
13.08.2013 10:20 13,2 C 94 % 1022,1 hPa 0,7 l/m 0,3 km/h (0 Bft) O 90 12,3 C 13,3 C 0,0 km/h (0 Bft)
13.08.2013 10:25 13,3 C 94 % 1022,1 hPa 0,0 l/m 0,0 km/h (0 Bft) O-NO 67 12,4 C 13,4 C 0,0 km/h (0 Bft)
13.08.2013 10:30 13,4 C 94 % 1022,1 hPa 0,0 l/m 0,0 km/h (0 Bft) NO 45 12,5 C 13,5 C 1,6 km/h (1 Bft)
13.08.2013 10:35 13,3 C 94 % 1022,1 hPa 0,0 l/m 0,2 km/h (0 Bft) O 90 12,4 C 13,6 C 0,0 km/h (0 Bft)
13.08.2013 10:40 13,4 C 94 % 1022,2 hPa 0,0 l/m 0,2 km/h (0 Bft) O 90 12,5 C 13,6 C 0,0 km/h (0 Bft)
13.08.2013 10:45 13,2 C 94 % 1022,2 hPa 0,0 l/m 0,3 km/h (0 Bft) O-SO 112 12,3 C 13,6 C 1,9 km/h (1 Bft)
13.08.2013 10:50 13,3 C 94 % 1022,2 hPa 0,0 l/m 1,0 km/h (0 Bft) S-SO 157 12,4 C 13,5 C 0,0 km/h (0 Bft)
13.08.2013 10:55 13,3 C 94 % 1022,2 hPa 0,0 l/m 0,8 km/h (0 Bft) O-SO 112 12,4 C 13,5 C 0,0 km/h (0 Bft)
13.08.2013 11:00 13,4 C 94 % 1022,4 hPa 0,0 l/m 0,3 km/h (0 Bft) O 90 12,5 C 13,6 C 2,9 km/h (1 Bft)
13.08.2013 11:05 13,3 C 94 % 1022,4 hPa 0,0 l/m 0,8 km/h (0 Bft) S 180 12,4 C 13,6 C 2,4 km/h (1 Bft)
13.08.2013 11:10 13,2 C 94 % 1022,4 hPa 0,0 l/m 1,6 km/h (1 Bft) S-SO 157 12,3 C 13,5 C 0,0 km/h (0 Bft)
13.08.2013 11:15 13,8 C 95 % 1022,4 hPa 0,7 l/m 1,3 km/h (1 Bft) SW 225 13,0 C 13,7 C 2,4 km/h (1 Bft)
13.08.2013 11:20 14,0 C 94 % 1022,8 hPa 0,0 l/m 1,1 km/h (1 Bft) O-NO 67 13,0 C 14,2 C 5,5 km/h (1 Bft)
13.08.2013 11:25 13,9 C 94 % 1022,8 hPa 0,0 l/m 2,1 km/h (1 Bft) S-SW 202 12,9 C 14,1 C 4,8 km/h (1 Bft)
13.08.2013 11:30 13,5 C 94 % 1022,8 hPa 0,0 l/m 3,4 km/h (1 Bft) N 360 12,6 C 13,9 C 4,2 km/h (1 Bft)
13.08.2013 11:35 13,4 C 94 % 1022,8 hPa 0,0 l/m 3,2 km/h (1 Bft) SW 225 12,5 C 13,8 C 4,7 km/h (1 Bft)
13.08.2013 11:40 13,4 C 94 % 1022,8 hPa 0,0 l/m 2,6 km/h (1 Bft) S 180 12,5 C 13,9 C 1,6 km/h (1 Bft)
13.08.2013 11:45 13,3 C 94 % 1022,8 hPa 0,0 l/m 1,8 km/h (1 Bft) NO 45 12,4 C 14,0 C 1,6 km/h (1 Bft)
13.08.2013 11:50 13,6 C 94 % 1022,8 hPa 0,0 l/m 1,4 km/h (1 Bft) S 180 12,7 C 14,3 C 4,3 km/h (1 Bft)
13.08.2013 11:55 13,4 C 94 % 1022,8 hPa 0,0 l/m 2,6 km/h (1 Bft) S 180 12,5 C 14,4 C 3,4 km/h (1 Bft)
13.08.2013 12:00 13,4 C 94 % 1022,8 hPa 0,0 l/m 3,4 km/h (1 Bft) S 180 12,5 C 14,3 C 6,1 km/h (2 Bft)
13.08.2013 12:05 13,2 C 94 % 1022,8 hPa 0,0 l/m 2,6 km/h (1 Bft) S-SO 157 12,3 C 14,3 C 5,0 km/h (1 Bft)
13.08.2013 12:10 13,2 C 94 % 1022,8 hPa 0,0 l/m 2,1 km/h (1 Bft) SO 135 12,3 C 14,4 C 3,1 km/h (1 Bft)
13.08.2013 12:15 13,3 C 94 % 1022,8 hPa 0,0 l/m 3,1 km/h (1 Bft) S-SO 157 12,4 C 14,3 C 5,8 km/h (2 Bft)
13.08.2013 12:20 13,3 C 94 % 1022,8 hPa 0,0 l/m 3,2 km/h (1 Bft) S 180 12,4 C 14,3 C 0,0 km/h (0 Bft)
13.08.2013 12:25 13,5 C 94 % 1022,8 hPa 0,0 l/m 2,1 km/h (1 Bft) O-SO 112 12,6 C 14,5 C 2,9 km/h (1 Bft)
13.08.2013 12:30 14,2 C 94 % 1022,8 hPa 0,0 l/m 1,6 km/h (1 Bft) S 180 13,2 C 15,0 C 2,3 km/h (1 Bft)
13.08.2013 12:35 15,0 C 93 % 1022,8 hPa 0,0 l/m 2,7 km/h (1 Bft) S 180 13,9 C 16,2 C 9,7 km/h (2 Bft)
13.08.2013 12:40 15,2 C 93 % 1023,2 hPa 0,0 l/m 3,4 km/h (1 Bft) S 180 14,1 C 16,6 C 6,4 km/h (2 Bft)
13.08.2013 12:45 15,3 C 93 % 1023,2 hPa 0,0 l/m 4,5 km/h (1 Bft) S 180 14,2 C 16,8 C 3,4 km/h (1 Bft)
13.08.2013 12:50 15,3 C 92 % 1023,2 hPa 0,0 l/m 5,3 km/h (1 Bft) S-SW 202 14,0 C 16,8 C 5,6 km/h (1 Bft)
13.08.2013 12:55 15,5 C 91 % 1023,2 hPa 0,0 l/m 4,3 km/h (1 Bft) S-SO 157 14,0 C 17,1 C 10,1 km/h (2 Bft)
13.08.2013 13:00 16,0 C 90 % 1023,5 hPa 0,0 l/m 3,7 km/h (1 Bft) S 180 14,4 C 17,4 C 3,9 km/h (1 Bft)
13.08.2013 13:05 16,2 C 89 % 1023,5 hPa 0,0 l/m 4,3 km/h (1 Bft) S-SO 157 14,4 C 17,9 C 6,1 km/h (2 Bft)
13.08.2013 13:10 16,3 C 87 % 1023,5 hPa 0,0 l/m 4,7 km/h (1 Bft) S-SW 202 14,1 C 18,0 C 2,6 km/h (1 Bft)
13.08.2013 13:15 16,7 C 86 % 1023,5 hPa 0,0 l/m 5,0 km/h (1 Bft) S 180 14,3 C 18,4 C 6,3 km/h (2 Bft)
13.08.2013 13:20 16,3 C 85 % 1023,4 hPa 0,0 l/m 4,8 km/h (1 Bft) S 180 13,8 C 18,4 C 8,2 km/h (2 Bft)
13.08.2013 13:25 16,6 C 82 % 1023,4 hPa 0,0 l/m 6,3 km/h (2 Bft) S-SO 157 13,5 C 18,5 C 10,8 km/h (2 Bft)
13.08.2013 13:30 16,3 C 83 % 1023,4 hPa 0,0 l/m 6,3 km/h (2 Bft) S-SO 157 13,4 C 18,5 C 7,7 km/h (2 Bft)
13.08.2013 13:35 16,5 C 81 % 1023,4 hPa 0,0 l/m 5,8 km/h (2 Bft) S 180 13,2 C 18,7 C 12,2 km/h (2 Bft)
13.08.2013 13:40 16,6 C 83 % 1023,4 hPa 0,0 l/m 5,5 km/h (1 Bft) S 180 13,7 C 18,6 C 6,9 km/h (2 Bft)
13.08.2013 13:45 17,0 C 83 % 1023,4 hPa 0,0 l/m 5,0 km/h (1 Bft) S 180 14,1 C 18,8 C 9,2 km/h (2 Bft)
13.08.2013 13:50 17,1 C 83 % 1023,4 hPa 0,0 l/m 5,0 km/h (1 Bft) O-SO 112 14,2 C 18,8 C 8,4 km/h (2 Bft)
13.08.2013 13:55 16,9 C 83 % 1023,4 hPa 0,0 l/m 6,0 km/h (2 Bft) S 180 14,0 C 18,8 C 12,7 km/h (3 Bft)
13.08.2013 14:00 17,2 C 83 % 1023,5 hPa 0,0 l/m 5,6 km/h (1 Bft) SW 225 14,3 C 18,9 C 6,4 km/h (2 Bft)
13.08.2013 14:05 17,9 C 82 % 1023,5 hPa 0,0 l/m 4,7 km/h (1 Bft) S 180 14,8 C 19,4 C 4,2 km/h (1 Bft)
13.08.2013 14:10 18,0 C 82 % 1023,5 hPa 0,0 l/m 4,3 km/h (1 Bft) S 180 14,9 C 19,8 C 3,2 km/h (1 Bft)
13.08.2013 14:15 17,5 C 78 % 1023,5 hPa 0,0 l/m 4,0 km/h (1 Bft) S-SO 157 13,6 C 20,3 C 4,5 km/h (1 Bft)
13.08.2013 14:20 17,5 C 82 % 1023,6 hPa 0,0 l/m 3,9 km/h (1 Bft) S 180 14,4 C 19,9 C 4,3 km/h (1 Bft)
13.08.2013 14:25 17,3 C 82 % 1023,6 hPa 0,0 l/m 4,3 km/h (1 Bft) S 180 14,2 C 19,4 C 6,4 km/h (2 Bft)
13.08.2013 14:30 17,5 C 81 % 1023,6 hPa 0,0 l/m 4,3 km/h (1 Bft) S-SO 157 14,2 C 19,4 C 5,8 km/h (2 Bft)
13.08.2013 14:35 17,7 C 81 % 1023,6 hPa 0,0 l/m 3,4 km/h (1 Bft) S-SO 157 14,4 C 19,8 C 7,6 km/h (2 Bft)
13.08.2013 14:40 18,2 C 84 % 1023,4 hPa 0,0 l/m 3,4 km/h (1 Bft) SW 225 15,4 C 19,9 C 5,6 km/h (1 Bft)
13.08.2013 14:45 18,9 C 84 % 1023,4 hPa 0,0 l/m 3,9 km/h (1 Bft) S 180 16,1 C 20,3 C 3,4 km/h (1 Bft)
13.08.2013 14:50 19,4 C 78 % 1023,4 hPa 0,0 l/m 3,5 km/h (1 Bft) SO 135 15,5 C 21,0 C 5,1 km/h (1 Bft)
13.08.2013 14:55 19,0 C 78 % 1023,4 hPa 0,0 l/m 4,8 km/h (1 Bft) S 180 15,1 C 21,3 C 6,3 km/h (2 Bft)
13.08.2013 15:00 18,9 C 78 % 1023,4 hPa 0,0 l/m 5,8 km/h (2 Bft) S 180 15,0 C 20,9 C 6,9 km/h (2 Bft)
13.08.2013 15:05 19,2 C 79 % 1023,4 hPa 0,0 l/m 5,0 km/h (1 Bft) SO 135 15,5 C 20,8 C 5,8 km/h (2 Bft)
13.08.2013 15:10 19,2 C 81 % 1023,4 hPa 0,0 l/m 3,7 km/h (1 Bft) S-SW 202 15,9 C 20,9 C 3,1 km/h (1 Bft)
13.08.2013 15:15 19,5 C 78 % 1023,4 hPa 0,0 l/m 3,4 km/h (1 Bft) S 180 15,6 C 21,0 C 5,0 km/h (1 Bft)
13.08.2013 15:20 19,8 C 77 % 1023,2 hPa 0,0 l/m 3,9 km/h (1 Bft) W-NW 292 15,6 C 21,1 C 5,1 km/h (1 Bft)
13.08.2013 15:25 20,2 C 75 % 1023,2 hPa 0,0 l/m 3,7 km/h (1 Bft) SO 135 15,6 C 21,7 C 3,7 km/h (1 Bft)
13.08.2013 15:30 20,4 C 69 % 1023,2 hPa 0,0 l/m 3,5 km/h (1 Bft) S 180 14,5 C 22,4 C 4,7 km/h (1 Bft)
13.08.2013 15:35 20,8 C 68 % 1023,2 hPa 0,0 l/m 3,4 km/h (1 Bft) S 180 14,7 C 23,1 C 6,1 km/h (2 Bft)
13.08.2013 15:40 20,7 C 71 % 1023,2 hPa 0,0 l/m 3,2 km/h (1 Bft) SO 135 15,2 C 23,3 C 3,5 km/h (1 Bft)
13.08.2013 15:45 20,2 C 67 % 1023,2 hPa 0,0 l/m 3,9 km/h (1 Bft) S 180 13,9 C 22,9 C 4,5 km/h (1 Bft)
13.08.2013 15:50 20,2 C 65 % 1023,2 hPa 0,0 l/m 4,7 km/h (1 Bft) S-SW 202 13,4 C 22,5 C 4,0 km/h (1 Bft)
13.08.2013 15:55 19,5 C 66 % 1023,2 hPa 0,0 l/m 4,5 km/h (1 Bft) S 180 13,0 C 21,8 C 4,2 km/h (1 Bft)
13.08.2013 16:00 19,9 C 63 % 1023,4 hPa 0,0 l/m 4,0 km/h (1 Bft) S 180 12,6 C 21,9 C 7,2 km/h (2 Bft)
13.08.2013 16:05 20,0 C 60 % 1023,4 hPa 0,0 l/m 3,9 km/h (1 Bft) S 180 12,0 C 22,1 C 5,1 km/h (1 Bft)
13.08.2013 16:10 19,8 C 61 % 1023,4 hPa 0,0 l/m 4,5 km/h (1 Bft) W-SW 247 12,1 C 21,7 C 4,3 km/h (1 Bft)
13.08.2013 16:15 19,4 C 62 % 1023,4 hPa 0,0 l/m 5,1 km/h (1 Bft) S-SO 157 11,9 C 21,2 C 5,3 km/h (1 Bft)
13.08.2013 16:20 20,0 C 63 % 1023,3 hPa 0,0 l/m 4,8 km/h (1 Bft) SO 135 12,7 C 21,3 C 5,5 km/h (1 Bft)
13.08.2013 16:25 20,5 C 59 % 1023,3 hPa 0,0 l/m 3,7 km/h (1 Bft) S 180 12,2 C 22,7 C 5,5 km/h (1 Bft)
13.08.2013 16:30 20,0 C 56 % 1023,3 hPa 0,0 l/m 4,0 km/h (1 Bft) O-SO 112 11,0 C 22,9 C 3,1 km/h (1 Bft)
13.08.2013 16:35 20,0 C 59 % 1023,3 hPa 0,0 l/m 4,2 km/h (1 Bft) S-SW 202 11,7 C 23,6 C 7,4 km/h (2 Bft)
13.08.2013 16:40 19,7 C 59 % 1023,1 hPa 0,0 l/m 3,1 km/h (1 Bft) S-SW 202 11,5 C 23,5 C 2,9 km/h (1 Bft)
13.08.2013 16:45 19,7 C 60 % 1023,1 hPa 0,0 l/m 3,1 km/h (1 Bft) N-NO 22 11,7 C 23,9 C 7,7 km/h (2 Bft)
13.08.2013 16:50 19,6 C 59 % 1023,1 hPa 0,0 l/m 3,9 km/h (1 Bft) S-SO 157 11,4 C 24,1 C 6,4 km/h (2 Bft)
13.08.2013 16:55 19,2 C 59 % 1023,1 hPa 0,0 l/m 5,0 km/h (1 Bft) S 180 11,0 C 22,8 C 2,3 km/h (1 Bft)
13.08.2013 17:00 19,7 C 60 % 1022,9 hPa 0,0 l/m 4,3 km/h (1 Bft) S-SO 157 11,7 C 23,0 C 7,1 km/h (2 Bft)
13.08.2013 17:05 19,6 C 59 % 1022,9 hPa 0,0 l/m 3,5 km/h (1 Bft) SO 135 11,4 C 23,9 C 6,8 km/h (2 Bft)
13.08.2013 17:10 19,6 C 59 % 1022,9 hPa 0,0 l/m 3,7 km/h (1 Bft) S 180 11,4 C 24,6 C 2,3 km/h (1 Bft)
13.08.2013 17:15 19,1 C 60 % 1022,9 hPa 0,0 l/m 3,1 km/h (1 Bft) W-SW 247 11,1 C 24,4 C 3,2 km/h (1 Bft)
13.08.2013 17:20 19,3 C 59 % 1022,8 hPa 0,0 l/m 3,1 km/h (1 Bft) W-SW 247 11,1 C 23,6 C 4,2 km/h (1 Bft)
13.08.2013 17:25 19,3 C 61 % 1022,8 hPa 0,0 l/m 3,2 km/h (1 Bft) S-SO 157 11,6 C 23,9 C 5,5 km/h (1 Bft)
13.08.2013 17:30 19,4 C 61 % 1022,8 hPa 0,0 l/m 3,2 km/h (1 Bft) S-SW 202 11,7 C 23,9 C 3,4 km/h (1 Bft)
13.08.2013 17:35 19,4 C 59 % 1022,8 hPa 0,0 l/m 3,5 km/h (1 Bft) S-SW 202 11,2 C 24,2 C 5,3 km/h (1 Bft)
13.08.2013 17:40 19,4 C 59 % 1022,8 hPa 0,0 l/m 4,0 km/h (1 Bft) S-SW 202 11,2 C 24,4 C 5,5 km/h (1 Bft)
13.08.2013 17:45 19,0 C 59 % 1022,8 hPa 0,0 l/m 6,1 km/h (2 Bft) S 180 10,8 C 24,2 C 8,4 km/h (2 Bft)
13.08.2013 17:50 18,8 C 59 % 1022,8 hPa 0,0 l/m 5,6 km/h (1 Bft) SW 225 10,6 C 23,3 C 4,2 km/h (1 Bft)
13.08.2013 17:55 18,6 C 60 % 1022,8 hPa 0,0 l/m 4,8 km/h (1 Bft) S 180 10,7 C 22,5 C 5,1 km/h (1 Bft)
13.08.2013 18:00 18,4 C 61 % 1022,4 hPa 0,0 l/m 3,9 km/h (1 Bft) S-SW 202 10,7 C 21,7 C 0,0 km/h (0 Bft)
13.08.2013 18:05 18,9 C 61 % 1022,4 hPa 0,0 l/m 3,9 km/h (1 Bft) S-SO 157 11,2 C 21,4 C 6,6 km/h (2 Bft)
13.08.2013 18:10 19,2 C 58 % 1022,4 hPa 0,0 l/m 4,5 km/h (1 Bft) S-SW 202 10,7 C 22,4 C 5,8 km/h (2 Bft)
13.08.2013 18:15 19,1 C 57 % 1022,4 hPa 0,0 l/m 5,5 km/h (1 Bft) S-SW 202 10,4 C 23,7 C 7,7 km/h (2 Bft)
13.08.2013 18:20 18,8 C 57 % 1022,6 hPa 0,0 l/m 5,3 km/h (1 Bft) S-SO 157 10,1 C 23,2 C 3,2 km/h (1 Bft)
13.08.2013 18:25 18,4 C 61 % 1022,6 hPa 0,0 l/m 4,5 km/h (1 Bft) S 180 10,7 C 24,2 C 6,4 km/h (2 Bft)
13.08.2013 18:30 18,5 C 60 % 1022,6 hPa 0,0 l/m 3,5 km/h (1 Bft) S-SW 202 10,6 C 24,5 C 5,1 km/h (1 Bft)
13.08.2013 18:35 18,6 C 59 % 1022,6 hPa 0,0 l/m 4,5 km/h (1 Bft) S 180 10,4 C 24,6 C 7,4 km/h (2 Bft)
13.08.2013 18:40 18,4 C 59 % 1022,1 hPa 0,0 l/m 4,7 km/h (1 Bft) W 270 10,2 C 24,4 C 3,9 km/h (1 Bft)
13.08.2013 18:45 18,1 C 59 % 1022,1 hPa 0,0 l/m 5,6 km/h (1 Bft) O-SO 112 10,0 C 24,0 C 11,1 km/h (2 Bft)
13.08.2013 18:50 18,0 C 58 % 1022,1 hPa 0,0 l/m 6,0 km/h (2 Bft) W-SW 247 9,6 C 23,7 C 8,4 km/h (2 Bft)
13.08.2013 18:55 17,8 C 58 % 1022,1 hPa 0,0 l/m 6,1 km/h (2 Bft) S 180 9,4 C 23,2 C 15,0 km/h (3 Bft)
13.08.2013 19:00 17,8 C 57 % 1022,0 hPa 0,0 l/m 6,1 km/h (2 Bft) S 180 9,2 C 22,7 C 4,0 km/h (1 Bft)
13.08.2013 19:05 17,5 C 58 % 1022,0 hPa 0,0 l/m 6,1 km/h (2 Bft) S 180 9,1 C 22,7 C 8,9 km/h (2 Bft)
13.08.2013 19:10 17,4 C 60 % 1022,0 hPa 0,0 l/m 5,0 km/h (1 Bft) S-SO 157 9,6 C 22,5 C 5,0 km/h (1 Bft)
13.08.2013 19:15 17,1 C 60 % 1022,0 hPa 0,0 l/m 4,5 km/h (1 Bft) W-SW 247 9,3 C 22,6 C 7,4 km/h (2 Bft)
13.08.2013 19:20 17,1 C 61 % 1021,9 hPa 0,0 l/m 3,5 km/h (1 Bft) W-SW 247 9,5 C 22,4 C 2,4 km/h (1 Bft)
13.08.2013 19:25 17,2 C 61 % 1021,9 hPa 0,0 l/m 2,7 km/h (1 Bft) S-SW 202 9,6 C 22,5 C 3,1 km/h (1 Bft)
13.08.2013 19:30 17,1 C 60 % 1021,9 hPa 0,0 l/m 2,6 km/h (1 Bft) S 180 9,3 C 21,9 C 6,1 km/h (2 Bft)
13.08.2013 19:35 16,7 C 63 % 1021,9 hPa 0,0 l/m 3,2 km/h (1 Bft) S 180 9,6 C 20,1 C 3,5 km/h (1 Bft)
13.08.2013 19:40 16,3 C 64 % 1022,2 hPa 0,0 l/m 3,2 km/h (1 Bft) S 180 9,5 C 19,1 C 2,3 km/h (1 Bft)
13.08.2013 19:45 15,9 C 66 % 1022,2 hPa 0,0 l/m 1,6 km/h (1 Bft) S-SW 202 9,6 C 18,4 C 0,0 km/h (0 Bft)
13.08.2013 19:50 15,8 C 67 % 1022,2 hPa 0,0 l/m 1,1 km/h (1 Bft) O-SO 112 9,7 C 18,3 C 0,0 km/h (0 Bft)
13.08.2013 19:55 15,5 C 69 % 1022,2 hPa 0,0 l/m 1,9 km/h (1 Bft) NO 45 9,8 C 17,8 C 3,5 km/h (1 Bft)
13.08.2013 20:00 15,2 C 71 % 1022,3 hPa 0,0 l/m 2,3 km/h (1 Bft) O-NO 67 10,0 C 17,7 C 2,4 km/h (1 Bft)
13.08.2013 20:05 14,9 C 72 % 1022,3 hPa 0,0 l/m 3,1 km/h (1 Bft) NO 45 9,9 C 16,6 C 4,3 km/h (1 Bft)
13.08.2013 20:10 14,8 C 73 % 1022,3 hPa 0,0 l/m 3,4 km/h (1 Bft) NO 45 10,0 C 15,8 C 4,8 km/h (1 Bft)
13.08.2013 20:15 14,3 C 75 % 1022,3 hPa 0,0 l/m 3,5 km/h (1 Bft) O 90 9,9 C 15,0 C 3,5 km/h (1 Bft)
13.08.2013 20:20 14,0 C 76 % 1022,5 hPa 0,0 l/m 4,0 km/h (1 Bft) NO 45 9,8 C 14,5 C 5,0 km/h (1 Bft)
13.08.2013 20:25 13,6 C 77 % 1022,5 hPa 0,0 l/m 4,3 km/h (1 Bft) O 90 9,6 C 14,0 C 5,1 km/h (1 Bft)
13.08.2013 20:30 13,4 C 78 % 1022,5 hPa 0,0 l/m 4,5 km/h (1 Bft) O-NO 67 9,6 C 13,7 C 4,3 km/h (1 Bft)
13.08.2013 20:35 13,0 C 79 % 1022,5 hPa 0,0 l/m 3,2 km/h (1 Bft) O 90 9,4 C 13,3 C 0,0 km/h (0 Bft)
13.08.2013 20:40 12,8 C 79 % 1022,6 hPa 0,0 l/m 2,1 km/h (1 Bft) O-SO 112 9,2 C 12,9 C 0,0 km/h (0 Bft)
13.08.2013 20:45 12,7 C 81 % 1022,6 hPa 0,0 l/m 1,1 km/h (1 Bft) O 90 9,5 C 12,5 C 3,5 km/h (1 Bft)
13.08.2013 20:50 12,9 C 82 % 1022,6 hPa 0,0 l/m 1,4 km/h (1 Bft) O 90 9,9 C 12,4 C 1,6 km/h (1 Bft)
13.08.2013 20:55 12,9 C 81 % 1022,6 hPa 0,0 l/m 1,6 km/h (1 Bft) O-NO 67 9,7 C 12,4 C 2,7 km/h (1 Bft)
13.08.2013 21:00 13,0 C 79 % 1022,9 hPa 0,0 l/m 1,3 km/h (1 Bft) O 90 9,4 C 12,4 C 1,8 km/h (1 Bft)
13.08.2013 21:05 13,2 C 78 % 1022,9 hPa 0,0 l/m 2,7 km/h (1 Bft) O 90 9,4 C 12,6 C 3,2 km/h (1 Bft)
13.08.2013 21:10 13,2 C 78 % 1022,9 hPa 0,0 l/m 3,4 km/h (1 Bft) O 90 9,4 C 12,7 C 3,9 km/h (1 Bft)
13.08.2013 21:15 13,1 C 78 % 1022,9 hPa 0,0 l/m 3,7 km/h (1 Bft) O-NO 67 9,4 C 12,7 C 3,9 km/h (1 Bft)
13.08.2013 21:20 12,9 C 79 % 1023,2 hPa 0,0 l/m 3,5 km/h (1 Bft) O 90 9,3 C 12,6 C 3,9 km/h (1 Bft)
13.08.2013 21:25 12,7 C 80 % 1023,2 hPa 0,0 l/m 3,1 km/h (1 Bft) NO 45 9,3 C 12,5 C 3,1 km/h (1 Bft)
13.08.2013 21:30 12,4 C 80 % 1023,2 hPa 0,0 l/m 1,8 km/h (1 Bft) W 270 9,0 C 12,4 C 0,0 km/h (0 Bft)
13.08.2013 21:35 12,1 C 81 % 1023,2 hPa 0,0 l/m 0,5 km/h (0 Bft) O 90 8,9 C 12,0 C 1,9 km/h (1 Bft)
13.08.2013 21:40 12,2 C 81 % 1023,2 hPa 0,0 l/m 1,0 km/h (0 Bft) O 90 9,0 C 11,9 C 2,6 km/h (1 Bft)
13.08.2013 21:45 12,2 C 83 % 1023,2 hPa 0,0 l/m 1,6 km/h (1 Bft) O-SO 112 9,4 C 11,9 C 0,0 km/h (0 Bft)
13.08.2013 21:50 12,0 C 83 % 1023,2 hPa 0,0 l/m 1,0 km/h (0 Bft) O-SO 112 9,2 C 11,8 C 0,0 km/h (0 Bft)
13.08.2013 21:55 12,1 C 83 % 1023,2 hPa 0,0 l/m 1,0 km/h (0 Bft) O 90 9,3 C 11,7 C 3,1 km/h (1 Bft)
13.08.2013 22:00 12,1 C 83 % 1023,2 hPa 0,0 l/m 1,4 km/h (1 Bft) NO 45 9,3 C 11,7 C 2,4 km/h (1 Bft)
13.08.2013 22:05 12,1 C 84 % 1023,2 hPa 0,0 l/m 1,6 km/h (1 Bft) NO 45 9,5 C 11,7 C 2,9 km/h (1 Bft)
13.08.2013 22:10 12,1 C 84 % 1023,2 hPa 0,0 l/m 2,3 km/h (1 Bft) NO 45 9,5 C 11,7 C 4,0 km/h (1 Bft)
13.08.2013 22:15 12,1 C 84 % 1023,2 hPa 0,0 l/m 2,4 km/h (1 Bft) O 90 9,5 C 11,7 C 1,9 km/h (1 Bft)
13.08.2013 22:20 12,1 C 84 % 1023,2 hPa 0,0 l/m 1,6 km/h (1 Bft) O-SO 112 9,5 C 11,7 C 3,9 km/h (1 Bft)
13.08.2013 22:25 12,2 C 85 % 1023,2 hPa 0,0 l/m 1,3 km/h (1 Bft) O-SO 112 9,8 C 11,9 C 0,0 km/h (0 Bft)
13.08.2013 22:30 12,4 C 85 % 1023,2 hPa 0,0 l/m 1,8 km/h (1 Bft) O 90 9,9 C 12,0 C 1,9 km/h (1 Bft)
13.08.2013 22:35 12,3 C 85 % 1023,2 hPa 0,0 l/m 0,8 km/h (0 Bft) S 180 9,9 C 12,1 C 0,0 km/h (0 Bft)
13.08.2013 22:40 12,1 C 84 % 1023,5 hPa 0,0 l/m 0,2 km/h (0 Bft) S 180 9,5 C 12,1 C 0,0 km/h (0 Bft)
13.08.2013 22:45 12,2 C 85 % 1023,5 hPa 0,0 l/m 0,0 km/h (0 Bft) NW 315 9,8 C 12,1 C 0,0 km/h (0 Bft)
13.08.2013 22:50 12,2 C 85 % 1023,5 hPa 0,0 l/m 0,0 km/h (0 Bft) O-SO 112 9,8 C 12,1 C 0,0 km/h (0 Bft)
13.08.2013 22:55 12,3 C 85 % 1023,5 hPa 0,0 l/m 0,2 km/h (0 Bft) W-SW 247 9,9 C 12,1 C 0,0 km/h (0 Bft)
13.08.2013 23:00 12,2 C 85 % 1023,6 hPa 0,0 l/m 0,2 km/h (0 Bft) S 180 9,8 C 12,1 C 0,0 km/h (0 Bft)
13.08.2013 23:05 12,3 C 85 % 1023,6 hPa 0,0 l/m 0,2 km/h (0 Bft) O 90 9,9 C 12,1 C 0,0 km/h (0 Bft)
13.08.2013 23:10 12,5 C 85 % 1023,6 hPa 0,0 l/m 0,2 km/h (0 Bft) O 90 10,0 C 12,2 C 0,0 km/h (0 Bft)
13.08.2013 23:15 12,8 C 84 % 1023,6 hPa 0,0 l/m 0,0 km/h (0 Bft) O-SO 112 10,2 C 12,4 C 0,0 km/h (0 Bft)
13.08.2013 23:20 12,8 C 83 % 1023,6 hPa 0,0 l/m 0,0 km/h (0 Bft) SO 135 10,0 C 12,4 C 0,0 km/h (0 Bft)
13.08.2013 23:25 12,8 C 81 % 1023,6 hPa 0,0 l/m 0,0 km/h (0 Bft) O 90 9,6 C 12,5 C 0,0 km/h (0 Bft)
13.08.2013 23:30 12,8 C 81 % 1023,6 hPa 0,0 l/m 0,3 km/h (0 Bft) O-NO 67 9,6 C 12,6 C 2,3 km/h (1 Bft)
13.08.2013 23:35 12,8 C 81 % 1023,6 hPa 0,0 l/m 1,3 km/h (1 Bft) O-NO 67 9,6 C 12,6 C 2,4 km/h (1 Bft)
13.08.2013 23:40 12,8 C 81 % 1023,5 hPa 0,0 l/m 1,9 km/h (1 Bft) NO 45 9,6 C 12,6 C 2,9 km/h (1 Bft)
13.08.2013 23:45 12,8 C 80 % 1023,5 hPa 0,0 l/m 2,7 km/h (1 Bft) O 90 9,4 C 12,6 C 2,3 km/h (1 Bft)
13.08.2013 23:50 12,7 C 80 % 1023,5 hPa 0,0 l/m 2,3 km/h (1 Bft) O 90 9,3 C 12,6 C 3,5 km/h (1 Bft)
13.08.2013 23:55 12,6 C 81 % 1023,5 hPa 0,0 l/m 1,8 km/h (1 Bft) S-SO 157 9,4 C 12,5 C 0,0 km/h (0 Bft)
_ Min-Zeit 21:50 16:30 01:55 - 23:25 - - 21:35 22:20 23:55
Minimum _ 12,0 C 56 % 1018,6 hPa - 0,0 km/h (0 Bft) - - 8,9 C 11,7 C 0,0 km/h (0 Bft)
_ Max-Zeit 15:35 11:15 23:35 07:05 13:30 - - 14:45 18:35 18:55
Maximum _ 20,8 C 95 % 1023,6 hPa 2,1 l/m 6,3 km/h
S-SO (2 Bft)
- - 16,1 C 24,6 C 15,0 km/h
S (3 Bft)
Durchschnitt _ 14,8 C 83 % 1021,6 hPa #7,6 l/m 2,3 km/h (1 Bft) S - 11,7 C 15,7 C 3,1 km/h (1 Bft)